When you browse on this site, cookies collect data to enhance your experience and personalize the content and advertising you see.
Visit our Privacy Policy to learn more. By continuing to use the site, you agree to this use of cookies and data.
  • In Czech Republic
  • List of Countries
  • For 7 days
  • Water Temperature
  • Weather Map
  • Weather Widgets
  • user-avatar
    Login

    Hourly Weather Pardubice

    Today, 20 February, Thursday

    Time Temperature Precipitation Wind Pressure Humidity
    00:00 0°C° 0 mm 5 mps 745 mmHg 80%
    01:00 0°C° 0 mm 5 mps 746 mmHg 78%
    02:00 0°C° 0 mm 5 mps 746 mmHg 79%
    03:00 0°C° 0 mm 5 mps 746 mmHg 79%
    04:00 0°C° 0 mm 5 mps 746 mmHg 79%
    05:00 -1°C° 0 mm 4 mps 746 mmHg 81%
    06:00 0°C° 0 mm 3 mps 747 mmHg 84%
    07:00 -1°C° 0 mm 2 mps 747 mmHg 86%
    08:00 +1°C° 0 mm 2 mps 747 mmHg 81%
    09:00 +2°C° 0 mm 3 mps 747 mmHg 76%
    10:00 +3°C° 0 mm 3 mps 747 mmHg 72%
    11:00 +4°C° 0 mm 3 mps 747 mmHg 70%
    12:00 +5°C° 0 mm 3 mps 747 mmHg 67%
    13:00 +7°C° 0 mm 3 mps 746 mmHg 65%
    14:00 +5°C° 0 mm 3 mps 746 mmHg 68%
    15:00 +6°C° 0 mm 2 mps 746 mmHg 71%
    16:00 +6°C° 0 mm 2 mps 745 mmHg 73%
    17:00 +6°C° 0 mm 2 mps 745 mmHg 76%
    18:00 +5°C° 0 mm 3 mps 745 mmHg 79%
    19:00 +4°C° 0 mm 3 mps 744 mmHg 82%
    20:00 +4°C° 0 mm 3 mps 744 mmHg 81%
    21:00 +4°C° 0 mm 4 mps 744 mmHg 80%
    22:00 +4°C° 0 mm 4 mps 743 mmHg 79%
    23:00 +4°C° 0 mm 4 mps 743 mmHg 79%

    Tomorrow, 21 February, Friday

    Time Temperature Precipitation Wind Pressure Humidity
    00:00 +3°C° 0 mm 5 mps 743 mmHg 78%
    01:00 +3°C° 0 mm 5 mps 742 mmHg 78%
    02:00 +3°C° 0.1 mm 6 mps 742 mmHg 79%
    03:00 +3°C° 0.1 mm 7 mps 741 mmHg 80%
    04:00 +3°C° 0.1 mm 7 mps 740 mmHg 81%
    05:00 +2°C° 0.3 mm 8 mps 741 mmHg 79%
    06:00 +2°C° 0.3 mm 8 mps 742 mmHg 77%
    07:00 +1°C° 0.3 mm 9 mps 743 mmHg 74%
    14:00 +4°C° 0.1 mm 8 mps 748 mmHg 59%
    15:00 +3°C° 0.1 mm 7 mps 749 mmHg 60%
    16:00 +3°C° 0.1 mm 6 mps 749 mmHg 60%
    17:00 +3°C° 0 mm 6 mps 749 mmHg 64%
    18:00 +2°C° 0 mm 5 mps 750 mmHg 68%
    19:00 +1°C° 0 mm 4 mps 750 mmHg 72%
    20:00 +1°C° 0 mm 4 mps 750 mmHg 74%
    21:00 +1°C° 0 mm 3 mps 750 mmHg 76%
    22:00 +1°C° 0 mm 3 mps 750 mmHg 79%
    23:00 +1°C° 0 mm 3 mps 750 mmHg 79%

    Day after tomorrow, 22 February, Saturday

    Time Temperature Precipitation Wind Pressure Humidity
    00:00 +1°C° 0 mm 3 mps 750 mmHg 80%
    01:00 +1°C° 0 mm 3 mps 750 mmHg 81%
    02:00 +1°C° 0 mm 3 mps 750 mmHg 82%
    03:00 +1°C° 0 mm 3 mps 750 mmHg 83%
    04:00 +1°C° 0 mm 3 mps 749 mmHg 84%
    05:00 +1°C° 0 mm 3 mps 749 mmHg 84%
    06:00 +1°C° 0 mm 3 mps 749 mmHg 83%
    07:00 0°C° 0 mm 4 mps 749 mmHg 83%
    08:00 +1°C° 0 mm 4 mps 748 mmHg 76%
    09:00 +2°C° 0 mm 5 mps 748 mmHg 68%
    10:00 +5°C° 0 mm 5 mps 748 mmHg 61%
    11:00 +6°C° 0 mm 5 mps 747 mmHg 56%
    12:00 +8°C° 0 mm 5 mps 747 mmHg 51%
    13:00 +9°C° 0 mm 6 mps 746 mmHg 47%
    14:00 +9°C° 0 mm 5 mps 746 mmHg 47%
    15:00 +10°C° 0 mm 5 mps 745 mmHg 47%
    16:00 +10°C° 0 mm 5 mps 744 mmHg 47%
    17:00 +9°C° 0 mm 5 mps 744 mmHg 50%
    18:00 +8°C° 0 mm 5 mps 744 mmHg 52%
    19:00 +8°C° 0 mm 5 mps 744 mmHg 55%
    20:00 +8°C° 0 mm 6 mps 744 mmHg 55%
    21:00 +8°C° 0 mm 7 mps 744 mmHg 56%
    22:00 +8°C° 0 mm 7 mps 744 mmHg 57%
    23:00 +7°C° 0.1 mm 8 mps 744 mmHg 61%

    23 February, Sunday

    Time Temperature Precipitation Wind Pressure Humidity
    00:00 +7°C° 0.1 mm 8 mps 744 mmHg 65%
    01:00 +7°C° 0.1 mm 8 mps 744 mmHg 70%
    02:00 +7°C° 0 mm 8 mps 744 mmHg 71%
    03:00 +7°C° 0 mm 8 mps 744 mmHg 73%
    04:00 +7°C° 0 mm 8 mps 743 mmHg 74%
    05:00 +7°C° 0.1 mm 8 mps 743 mmHg 74%
    06:00 +7°C° 0.1 mm 8 mps 744 mmHg 73%
    07:00 +7°C° 0.1 mm 8 mps 744 mmHg 72%
    08:00 +6°C° 0.2 mm 8 mps 744 mmHg 73%
    09:00 +6°C° 0.2 mm 8 mps 745 mmHg 73%
    10:00 +5°C° 0.2 mm 7 mps 745 mmHg 74%
    11:00 +5°C° 0.2 mm 7 mps 745 mmHg 75%
    12:00 +5°C° 0.2 mm 7 mps 745 mmHg 75%
    13:00 +5°C° 0.2 mm 7 mps 745 mmHg 76%
    14:00 +5°C° 0.2 mm 7 mps 744 mmHg 79%
    15:00 +5°C° 0.2 mm 6 mps 743 mmHg 82%
    16:00 +6°C° 0.2 mm 5 mps 742 mmHg 84%
    17:00 +6°C° 1.4 mm 5 mps 741 mmHg 86%
    18:00 +7°C° 1.4 mm 5 mps 740 mmHg 88%
    19:00 +7°C° 1.4 mm 5 mps 739 mmHg 90%
    20:00 +8°C° 1.3 mm 6 mps 739 mmHg 89%
    21:00 +7°C° 1.3 mm 8 mps 738 mmHg 87%
    22:00 +8°C° 1.3 mm 10 mps 738 mmHg 86%
    23:00 +7°C° 1 mm 9 mps 739 mmHg 85%

    24 February, Monday

    Time Temperature Precipitation Wind Pressure Humidity
    00:00 +6°C° 1 mm 9 mps 740 mmHg 85%
    01:00 +4°C° 1 mm 8 mps 741 mmHg 84%
    02:00 +4°C° 0.1 mm 7 mps 742 mmHg 83%
    03:00 +3°C° 0.1 mm 6 mps 742 mmHg 82%
    04:00 +2°C° 0.1 mm 6 mps 743 mmHg 81%
    05:00 +2°C° 0 mm 5 mps 744 mmHg 81%
    06:00 +2°C° 0 mm 5 mps 744 mmHg 80%
    07:00 +1°C° 0 mm 4 mps 745 mmHg 80%
    08:00 +3°C° 0 mm 4 mps 745 mmHg 76%
    09:00 +3°C° 0 mm 4 mps 746 mmHg 72%
    10:00 +4°C° 0 mm 3 mps 746 mmHg 68%
    11:00 +5°C° 0 mm 3 mps 746 mmHg 63%
    12:00 +5°C° 0 mm 3 mps 746 mmHg 59%
    13:00 +7°C° 0 mm 3 mps 745 mmHg 54%
    14:00 +7°C° 0 mm 2 mps 745 mmHg 59%
    15:00 +6°C° 0 mm 2 mps 744 mmHg 63%
    16:00 +6°C° 0 mm 2 mps 743 mmHg 68%
    17:00 +6°C° 0.1 mm 2 mps 743 mmHg 74%
    18:00 +6°C° 0.1 mm 2 mps 743 mmHg 79%
    19:00 +5°C° 0.1 mm 3 mps 742 mmHg 84%
    20:00 +7°C° 0 mm 3 mps 742 mmHg 87%
    21:00 +8°C° 0 mm 3 mps 742 mmHg 89%
    22:00 +8°C° 0 mm 2 mps 741 mmHg 91%
    23:00 +8°C° 0 mm 3 mps 741 mmHg 91%

    25 February, Tuesday

    Time Temperature Precipitation Wind Pressure Humidity
    00:00 +8°C° 0 mm 3 mps 740 mmHg 90%
    01:00 +7°C° 0 mm 4 mps 740 mmHg 90%
    02:00 +7°C° 0 mm 4 mps 740 mmHg 89%
    03:00 +6°C° 0 mm 4 mps 740 mmHg 89%
    04:00 +6°C° 0 mm 4 mps 739 mmHg 88%
    05:00 +6°C° 0 mm 4 mps 739 mmHg 89%
    06:00 +5°C° 0 mm 4 mps 739 mmHg 89%
    07:00 +5°C° 0 mm 3 mps 739 mmHg 90%
    08:00 +6°C° 0 mm 4 mps 738 mmHg 85%
    09:00 +7°C° 0 mm 5 mps 738 mmHg 80%
    10:00 +9°C° 0 mm 5 mps 738 mmHg 75%
    11:00 +9°C° 0 mm 6 mps 738 mmHg 71%
    12:00 +10°C° 0 mm 6 mps 737 mmHg 66%
    13:00 +11°C° 0 mm 6 mps 737 mmHg 62%
    14:00 +12°C° 0 mm 5 mps 736 mmHg 63%
    15:00 +11°C° 0 mm 4 mps 736 mmHg 65%
    16:00 +11°C° 0 mm 4 mps 735 mmHg 66%
    17:00 +10°C° 0.1 mm 3 mps 735 mmHg 71%
    18:00 +10°C° 0.1 mm 3 mps 735 mmHg 75%
    19:00 +9°C° 0.1 mm 2 mps 735 mmHg 79%
    20:00 +9°C° 0.3 mm 3 mps 734 mmHg 81%
    21:00 +7°C° 0.3 mm 4 mps 734 mmHg 82%
    22:00 +7°C° 0.3 mm 4 mps 734 mmHg 83%
    23:00 +7°C° 0.2 mm 5 mps 734 mmHg 83%
    Show more